Tracking 18665 objects as of 24-June-2017
HD Live streaming from Space Station
objects crossing your sky now

BREEZE-M DEB

Track BREEZE-M DEB now!
10-day predictions


NORAD ID: 34250
Int'l Code: 2006-006BR
Perigee: 511.7 km
Apogee: 14,722.6 km
Inclination: 51.7 °
Period: 274.4 minutes
Semi major axis: 13988 km
RCS: 0.0694 m2 (small)
Launch date: February 28, 2006
Source: Commonwealth of Independent States (former USSR) (CIS)
Launch site: TYURATAM MISSILE AND SPACE COMPLEX (TTMTR)

Note: This is SATELLITE DEBRIS
Your satellite tracking list
Your tracking list is empty





NASA's NSSDC Master Catalog

Two Line Element Set (TLE):
1 34250U 06006BR  17174.77351751 +.00000122 +00000-0 +33025-3 0  9993
2 34250 051.7321 035.7745 5079626 039.0361 348.5141 05.24760785182464
Source of the keplerian elements: AFSPC